Year,Month,Day,Hour,Minute,Value (Times are PST for windgust in km/hr)
2022,05,17,00,00,9.60
2022,05,17,00,01,11.30
2022,05,17,00,02,8.10
2022,05,17,00,03,6.40
2022,05,17,00,04,11.30
2022,05,17,00,05,16.10
2022,05,17,00,06,14.50
2022,05,17,00,07,11.30
2022,05,17,00,08,8.10
2022,05,17,00,09,11.30
2022,05,17,00,10,17.70
2022,05,17,00,11,14.50
2022,05,17,00,12,9.60
2022,05,17,00,13,19.30
2022,05,17,00,14,16.10
2022,05,17,00,15,20.90
2022,05,17,00,16,19.30
2022,05,17,00,17,24.20
2022,05,17,00,18,20.90
2022,05,17,00,19,14.50
2022,05,17,00,20,16.10
2022,05,17,00,21,16.10
2022,05,17,00,22,11.30
2022,05,17,00,23,16.10
2022,05,17,00,24,11.30
2022,05,17,00,25,14.50
2022,05,17,00,26,14.50
2022,05,17,00,27,12.90
2022,05,17,00,28,14.50
2022,05,17,00,29,9.60
2022,05,17,00,30,8.10
2022,05,17,00,31,14.50
2022,05,17,00,32,9.60
2022,05,17,00,33,14.50
2022,05,17,00,34,8.10
2022,05,17,00,35,4.80
2022,05,17,00,36,9.60
2022,05,17,00,37,9.60
2022,05,17,00,38,11.30
2022,05,17,00,39,14.50
2022,05,17,00,40,8.10
2022,05,17,00,41,9.60
2022,05,17,00,42,8.10
2022,05,17,00,43,8.10
2022,05,17,00,44,9.60
2022,05,17,00,45,8.10
2022,05,17,00,46,11.30
2022,05,17,00,47,6.40
2022,05,17,00,48,4.80
2022,05,17,00,49,4.80
2022,05,17,00,50,11.30
2022,05,17,00,51,9.60
2022,05,17,00,52,9.60
2022,05,17,00,53,9.60
2022,05,17,00,54,8.10
2022,05,17,00,55,8.10
2022,05,17,00,56,14.50
2022,05,17,00,57,14.50
2022,05,17,00,58,8.10
2022,05,17,00,59,4.80
2022,05,17,01,00,14.50
2022,05,17,01,01,8.10
2022,05,17,01,02,8.10
2022,05,17,01,03,6.40
2022,05,17,01,04,8.10
2022,05,17,01,05,11.30
2022,05,17,01,06,9.60
2022,05,17,01,07,9.60
2022,05,17,01,08,14.50
2022,05,17,01,09,9.60
2022,05,17,01,10,4.80
2022,05,17,01,11,1.60
2022,05,17,01,12,6.40
2022,05,17,01,13,9.60
2022,05,17,01,14,4.80
2022,05,17,01,15,4.80
2022,05,17,01,16,6.40
2022,05,17,01,17,1.60
2022,05,17,01,19,4.80
2022,05,17,01,20,6.40
2022,05,17,01,21,8.10
2022,05,17,01,22,1.60
2022,05,17,01,23,3.20
2022,05,17,01,24,3.20
2022,05,17,01,25,3.20
2022,05,17,01,28,1.60
2022,05,17,01,29,8.10
2022,05,17,01,30,6.40
2022,05,17,01,31,4.80
2022,05,17,01,32,4.80
2022,05,17,01,33,3.20
2022,05,17,01,34,6.40
2022,05,17,01,35,6.40
2022,05,17,01,36,1.60
2022,05,17,01,37,1.60
2022,05,17,01,38,4.80
2022,05,17,01,39,6.40
2022,05,17,01,40,6.40
2022,05,17,01,41,6.40
2022,05,17,01,42,8.10
2022,05,17,01,43,8.10
2022,05,17,01,44,4.80
2022,05,17,01,45,9.60
2022,05,17,01,46,6.40
2022,05,17,01,47,3.20
2022,05,17,01,48,6.40
2022,05,17,01,49,6.40
2022,05,17,01,50,1.60
2022,05,17,01,51,6.40
2022,05,17,01,52,4.80
2022,05,17,01,53,9.60
2022,05,17,01,54,4.80
2022,05,17,01,55,1.60
2022,05,17,01,57,8.10
2022,05,17,01,58,9.60
2022,05,17,01,59,6.40
2022,05,17,02,00,8.10
2022,05,17,02,01,11.30
2022,05,17,02,02,9.60
2022,05,17,02,03,8.10
2022,05,17,02,04,6.40
2022,05,17,02,05,11.30
2022,05,17,02,06,8.10
2022,05,17,02,07,8.10
2022,05,17,02,08,9.60
2022,05,17,02,09,6.40
2022,05,17,02,10,8.10
2022,05,17,02,11,9.60
2022,05,17,02,12,4.80
2022,05,17,02,13,6.40
2022,05,17,02,14,6.40
2022,05,17,02,15,6.40
2022,05,17,02,16,4.80
2022,05,17,02,17,1.60
2022,05,17,02,18,6.40
2022,05,17,02,19,6.40
2022,05,17,02,20,9.60
2022,05,17,02,21,1.60
2022,05,17,02,22,4.80
2022,05,17,02,23,8.10
2022,05,17,02,24,6.40
2022,05,17,02,25,9.60
2022,05,17,02,26,4.80
2022,05,17,02,27,4.80
2022,05,17,02,28,4.80
2022,05,17,02,29,3.20
2022,05,17,02,30,1.60
2022,05,17,02,42,1.60
2022,05,17,02,44,1.60
2022,05,17,02,45,3.20
2022,05,17,02,46,1.60
2022,05,17,02,55,1.60
2022,05,17,02,59,4.80
2022,05,17,03,00,8.10
2022,05,17,03,01,1.60
2022,05,17,03,05,3.20
2022,05,17,03,08,4.80
2022,05,17,03,09,3.20
2022,05,17,03,10,8.10
2022,05,17,03,11,6.40
2022,05,17,03,12,11.30
2022,05,17,03,13,9.60
2022,05,17,03,14,6.40
2022,05,17,03,15,6.40
2022,05,17,03,16,6.40
2022,05,17,03,17,4.80
2022,05,17,03,18,1.60
2022,05,17,03,19,4.80
2022,05,17,03,20,6.40
2022,05,17,03,21,6.40
2022,05,17,03,22,6.40
2022,05,17,03,23,4.80
2022,05,17,03,24,1.60
2022,05,17,03,25,3.20
2022,05,17,03,26,4.80
2022,05,17,03,27,3.20
2022,05,17,03,28,4.80
2022,05,17,03,29,6.40
2022,05,17,03,30,3.20
2022,05,17,03,31,3.20
2022,05,17,03,33,4.80
2022,05,17,03,34,3.20
2022,05,17,03,37,1.60
2022,05,17,04,52,1.60
2022,05,17,04,54,1.60
2022,05,17,05,00,1.60
2022,05,17,05,29,1.60
2022,05,17,05,30,1.60
2022,05,17,06,48,1.60
2022,05,17,06,49,1.60
2022,05,17,06,50,3.20
2022,05,17,06,51,3.20
2022,05,17,06,52,1.60
2022,05,17,06,53,1.60
2022,05,17,06,54,1.60
2022,05,17,06,56,1.60
2022,05,17,06,57,1.60
2022,05,17,07,09,1.60
2022,05,17,07,25,1.60
2022,05,17,07,26,3.20
2022,05,17,07,27,4.80
2022,05,17,07,28,6.40
2022,05,17,07,29,6.40
2022,05,17,07,30,1.60
2022,05,17,07,31,4.80
2022,05,17,07,32,6.40
2022,05,17,07,33,3.20
2022,05,17,07,34,3.20
2022,05,17,07,35,3.20
2022,05,17,07,36,1.60
2022,05,17,07,37,3.20
2022,05,17,07,38,3.20
2022,05,17,07,39,3.20
2022,05,17,07,40,3.20
2022,05,17,07,41,3.20
2022,05,17,07,43,1.60
2022,05,17,07,44,1.60
2022,05,17,07,45,8.10
2022,05,17,07,46,6.40
2022,05,17,07,47,9.60
2022,05,17,07,48,6.40
2022,05,17,07,49,9.60
2022,05,17,07,50,6.40
2022,05,17,07,51,6.40
2022,05,17,07,52,9.60
2022,05,17,07,53,8.10
2022,05,17,07,54,8.10
2022,05,17,07,55,8.10
2022,05,17,07,56,9.60
2022,05,17,07,57,9.60
2022,05,17,07,58,11.30
2022,05,17,07,59,9.60
2022,05,17,08,00,8.10
2022,05,17,08,01,8.10
2022,05,17,08,02,11.30
2022,05,17,08,03,12.90
2022,05,17,08,04,9.60
2022,05,17,08,05,8.10
2022,05,17,08,06,9.60
2022,05,17,08,07,11.30
2022,05,17,08,08,11.30
2022,05,17,08,09,8.10
2022,05,17,08,10,6.40
2022,05,17,08,11,11.30
2022,05,17,08,12,11.30
2022,05,17,08,13,14.50
2022,05,17,08,14,16.10
2022,05,17,08,15,11.30
2022,05,17,08,16,14.50
2022,05,17,08,17,16.10
2022,05,17,08,18,9.60
2022,05,17,08,19,16.10
2022,05,17,08,20,16.10
2022,05,17,08,21,14.50
2022,05,17,08,22,16.10
2022,05,17,08,23,17.70
2022,05,17,08,24,16.10
2022,05,17,08,25,14.50
2022,05,17,08,26,9.60
2022,05,17,08,27,9.60
2022,05,17,08,28,16.10
2022,05,17,08,29,8.10
2022,05,17,08,30,14.50
2022,05,17,08,31,17.70
2022,05,17,08,32,12.90
2022,05,17,08,33,16.10
2022,05,17,08,34,16.10
2022,05,17,08,35,19.30
2022,05,17,08,36,19.30
2022,05,17,08,37,17.70
2022,05,17,08,38,20.90
2022,05,17,08,39,11.30
2022,05,17,08,40,12.90
2022,05,17,08,41,9.60
2022,05,17,08,42,11.30
2022,05,17,08,43,14.50
2022,05,17,08,44,16.10
2022,05,17,08,45,16.10
2022,05,17,08,46,16.10
2022,05,17,08,47,16.10
2022,05,17,08,48,17.70
2022,05,17,08,49,19.30
2022,05,17,08,50,11.30
2022,05,17,08,51,11.30
2022,05,17,08,52,17.70
2022,05,17,08,53,12.90
2022,05,17,08,54,9.60
2022,05,17,08,55,14.50
2022,05,17,08,56,11.30
2022,05,17,08,57,17.70
2022,05,17,08,58,12.90
2022,05,17,08,59,9.60
2022,05,17,09,00,11.30
2022,05,17,09,01,14.50
2022,05,17,09,02,17.70
2022,05,17,09,03,17.70
2022,05,17,09,04,14.50
2022,05,17,09,05,20.90
2022,05,17,09,06,17.70
2022,05,17,09,07,17.70
2022,05,17,09,08,16.10
2022,05,17,09,09,19.30
2022,05,17,09,10,11.30
2022,05,17,09,11,9.60
2022,05,17,09,12,14.50
2022,05,17,09,13,17.70
2022,05,17,09,14,16.10
2022,05,17,09,15,17.70
2022,05,17,09,16,8.10
2022,05,17,09,17,17.70
2022,05,17,09,18,19.30
2022,05,17,09,19,16.10
2022,05,17,09,20,19.30
2022,05,17,09,21,19.30
2022,05,17,09,22,8.10
2022,05,17,09,23,9.60
2022,05,17,09,24,9.60
2022,05,17,09,25,8.10
2022,05,17,09,26,14.50
2022,05,17,09,27,17.70
2022,05,17,09,28,20.90
2022,05,17,09,29,16.10
2022,05,17,09,30,20.90
2022,05,17,09,31,20.90
2022,05,17,09,32,16.10
2022,05,17,09,33,16.10
2022,05,17,09,34,20.90
2022,05,17,09,35,11.30
2022,05,17,09,36,19.30
2022,05,17,09,37,22.50
2022,05,17,09,38,20.90
2022,05,17,09,39,20.90
2022,05,17,09,40,19.30
2022,05,17,09,41,19.30
2022,05,17,09,42,19.30
2022,05,17,09,43,24.20
2022,05,17,09,44,17.70
2022,05,17,09,45,16.10
2022,05,17,09,46,19.30
2022,05,17,09,47,17.70
2022,05,17,09,48,16.10
2022,05,17,09,49,14.50
2022,05,17,09,50,19.30
2022,05,17,09,51,19.30
2022,05,17,09,52,9.60
2022,05,17,09,53,16.10
2022,05,17,09,54,16.10
2022,05,17,09,55,20.90
2022,05,17,09,56,19.30
2022,05,17,09,57,19.30
2022,05,17,09,58,20.90
2022,05,17,09,59,17.70
2022,05,17,10,00,16.10
2022,05,17,10,01,22.50
2022,05,17,10,02,11.30
2022,05,17,10,03,14.50
2022,05,17,10,04,19.30
2022,05,17,10,05,16.10
2022,05,17,10,06,17.70
2022,05,17,10,07,16.10
2022,05,17,10,08,16.10
2022,05,17,10,09,19.30
2022,05,17,10,10,19.30
2022,05,17,10,11,19.30
2022,05,17,10,12,17.70
2022,05,17,10,13,20.90
2022,05,17,10,14,14.50
2022,05,17,10,15,14.50
2022,05,17,10,16,17.70
2022,05,17,10,17,17.70
2022,05,17,10,18,11.30
2022,05,17,10,19,14.50
2022,05,17,10,20,17.70
2022,05,17,10,21,17.70
2022,05,17,10,22,22.50
2022,05,17,10,23,9.60
2022,05,17,10,24,12.90
2022,05,17,10,25,14.50
2022,05,17,10,26,19.30
2022,05,17,10,27,17.70
2022,05,17,10,28,11.30
2022,05,17,10,29,11.30
2022,05,17,10,30,20.90
2022,05,17,10,31,12.90
2022,05,17,10,32,22.50
2022,05,17,10,33,19.30
2022,05,17,10,34,17.70
2022,05,17,10,35,27.40
2022,05,17,10,36,20.90
2022,05,17,10,37,20.90
2022,05,17,10,38,19.30
2022,05,17,10,39,20.90
2022,05,17,10,40,12.90
2022,05,17,10,41,17.70
2022,05,17,10,42,22.50
2022,05,17,10,43,24.20
2022,05,17,10,44,17.70
2022,05,17,10,45,17.70
2022,05,17,10,46,22.50
2022,05,17,10,47,20.90
2022,05,17,10,48,16.10
2022,05,17,10,49,17.70
2022,05,17,10,50,24.20
2022,05,17,10,51,24.20
2022,05,17,10,52,17.70
2022,05,17,10,53,22.50
2022,05,17,10,54,24.20
2022,05,17,10,55,24.20
2022,05,17,10,56,24.20
2022,05,17,10,57,25.70
2022,05,17,10,58,17.70
2022,05,17,10,59,20.90
2022,05,17,11,00,22.50
2022,05,17,11,01,27.40
2022,05,17,11,02,19.30
2022,05,17,11,03,16.10
2022,05,17,11,04,16.10
2022,05,17,11,05,20.90
2022,05,17,11,06,19.30
2022,05,17,11,07,19.30
2022,05,17,11,08,27.40
2022,05,17,11,09,24.20
2022,05,17,11,10,19.30
2022,05,17,11,11,24.20
2022,05,17,11,12,19.30
2022,05,17,11,13,24.20
2022,05,17,11,14,27.40
2022,05,17,11,15,24.20
2022,05,17,11,16,22.50
2022,05,17,11,17,19.30
2022,05,17,11,18,22.50
2022,05,17,11,19,19.30
2022,05,17,11,20,14.50
2022,05,17,11,21,19.30
2022,05,17,11,22,29.00
2022,05,17,11,23,27.40
2022,05,17,11,24,19.30
2022,05,17,11,25,19.30
2022,05,17,11,26,32.20
2022,05,17,11,27,27.40
2022,05,17,11,28,29.00
2022,05,17,11,29,24.20
2022,05,17,11,30,19.30
2022,05,17,11,31,19.30
2022,05,17,11,32,27.40
2022,05,17,11,33,20.90
2022,05,17,11,34,22.50
2022,05,17,11,35,20.90
2022,05,17,11,36,19.30
2022,05,17,11,37,24.20
2022,05,17,11,38,20.90
2022,05,17,11,39,11.30
2022,05,17,11,40,19.30
2022,05,17,11,41,19.30
2022,05,17,11,42,19.30
2022,05,17,11,43,17.70
2022,05,17,11,44,20.90
2022,05,17,11,45,19.30
2022,05,17,11,46,22.50
2022,05,17,11,47,22.50
2022,05,17,11,48,24.20
2022,05,17,11,49,17.70
2022,05,17,11,50,16.10
2022,05,17,11,51,16.10
2022,05,17,11,52,11.30
2022,05,17,11,53,20.90
2022,05,17,11,54,17.70
2022,05,17,11,55,17.70
2022,05,17,11,56,24.20
2022,05,17,11,57,22.50
2022,05,17,11,58,24.20
2022,05,17,11,59,25.70
2022,05,17,12,00,20.90
2022,05,17,12,01,25.70
2022,05,17,12,02,24.20
2022,05,17,12,03,25.70
2022,05,17,12,04,27.40
2022,05,17,12,05,25.70
2022,05,17,12,06,22.50
2022,05,17,12,07,25.70
2022,05,17,12,08,27.40
2022,05,17,12,09,19.30
2022,05,17,12,10,14.50
2022,05,17,12,11,30.60
2022,05,17,12,12,25.70
2022,05,17,12,13,17.70
2022,05,17,12,14,12.90
2022,05,17,12,15,24.20
2022,05,17,12,16,20.90
2022,05,17,12,17,20.90
2022,05,17,12,18,19.30
2022,05,17,12,19,11.30
2022,05,17,12,20,11.30
2022,05,17,12,21,19.30
2022,05,17,12,22,19.30
2022,05,17,12,23,20.90
2022,05,17,12,24,22.50
2022,05,17,12,25,20.90
2022,05,17,12,26,20.90
2022,05,17,12,27,14.50
2022,05,17,12,28,20.90
2022,05,17,12,29,25.70
2022,05,17,12,30,17.70
2022,05,17,12,31,19.30
2022,05,17,12,32,20.90
2022,05,17,12,33,17.70
2022,05,17,12,34,22.50
2022,05,17,12,35,19.30
2022,05,17,12,36,19.30
2022,05,17,12,37,20.90
2022,05,17,12,38,19.30
2022,05,17,12,39,25.70
2022,05,17,12,40,22.50
2022,05,17,12,41,19.30
2022,05,17,12,42,17.70
2022,05,17,12,43,24.20
2022,05,17,12,44,24.20
2022,05,17,12,45,22.50
2022,05,17,12,46,19.30
2022,05,17,12,47,8.10
2022,05,17,12,48,9.60
2022,05,17,12,49,19.30
2022,05,17,12,50,16.10
2022,05,17,12,51,14.50
2022,05,17,12,52,17.70
2022,05,17,12,53,17.70
2022,05,17,12,54,16.10
2022,05,17,12,55,19.30
2022,05,17,12,56,19.30
2022,05,17,12,57,19.30
2022,05,17,12,58,14.50
2022,05,17,12,59,12.90
2022,05,17,13,00,22.50
2022,05,17,13,01,22.50
2022,05,17,13,02,20.90
2022,05,17,13,03,25.70
2022,05,17,13,04,25.70
2022,05,17,13,05,25.70
2022,05,17,13,06,22.50
2022,05,17,13,07,16.10
2022,05,17,13,08,22.50
2022,05,17,13,09,24.20
2022,05,17,13,10,20.90
2022,05,17,13,11,19.30
2022,05,17,13,12,14.50
2022,05,17,13,13,16.10
2022,05,17,13,14,24.20
2022,05,17,13,15,22.50
2022,05,17,13,16,11.30
2022,05,17,13,17,20.90
2022,05,17,13,18,19.30
2022,05,17,13,19,24.20
2022,05,17,13,20,20.90
2022,05,17,13,21,20.90
2022,05,17,13,22,22.50
2022,05,17,13,23,17.70
2022,05,17,13,24,17.70
2022,05,17,13,25,19.30
2022,05,17,13,26,16.10
2022,05,17,13,27,16.10
2022,05,17,13,28,16.10
2022,05,17,13,29,11.30
2022,05,17,13,30,20.90
2022,05,17,13,31,22.50
2022,05,17,13,32,19.30
2022,05,17,13,33,20.90
2022,05,17,13,34,25.70
2022,05,17,13,35,22.50
2022,05,17,13,36,24.20
2022,05,17,13,37,19.30
2022,05,17,13,38,22.50
2022,05,17,13,39,22.50
2022,05,17,13,40,24.20
2022,05,17,13,41,19.30
2022,05,17,13,42,19.30
2022,05,17,13,43,19.30
2022,05,17,13,44,20.90
2022,05,17,13,45,16.10
2022,05,17,13,46,16.10
2022,05,17,13,47,19.30
2022,05,17,13,48,24.20
2022,05,17,13,49,17.70
2022,05,17,13,50,12.90
2022,05,17,13,51,17.70
2022,05,17,13,52,24.20
2022,05,17,13,53,24.20
2022,05,17,13,54,22.50
2022,05,17,13,55,22.50
2022,05,17,13,56,19.30
2022,05,17,13,57,17.70
2022,05,17,13,58,17.70
2022,05,17,13,59,16.10
2022,05,17,14,00,20.90
2022,05,17,14,01,29.00
2022,05,17,14,02,24.20
2022,05,17,14,03,24.20
2022,05,17,14,04,19.30
2022,05,17,14,05,22.50
2022,05,17,14,06,9.60
2022,05,17,14,07,19.30
2022,05,17,14,08,22.50
2022,05,17,14,09,22.50
2022,05,17,14,10,19.30
2022,05,17,14,11,25.70
2022,05,17,14,12,22.50
2022,05,17,14,13,25.70
2022,05,17,14,14,16.10
2022,05,17,14,15,20.90
2022,05,17,14,16,24.20
2022,05,17,14,17,20.90
2022,05,17,14,18,19.30
2022,05,17,14,19,24.20
2022,05,17,14,20,19.30
2022,05,17,14,21,22.50
2022,05,17,14,22,25.70
2022,05,17,14,23,25.70
2022,05,17,14,24,20.90
2022,05,17,14,25,22.50
2022,05,17,14,26,16.10
2022,05,17,14,27,22.50
2022,05,17,14,28,22.50
2022,05,17,14,29,22.50
2022,05,17,14,30,19.30
2022,05,17,14,31,22.50
2022,05,17,14,32,24.20
2022,05,17,14,33,17.70
2022,05,17,14,34,20.90
2022,05,17,14,35,22.50
2022,05,17,14,36,22.50
2022,05,17,14,37,19.30
2022,05,17,14,38,22.50
2022,05,17,14,39,24.20
2022,05,17,14,40,20.90
2022,05,17,14,41,17.70
2022,05,17,14,42,20.90
2022,05,17,14,43,20.90
2022,05,17,14,44,19.30
2022,05,17,14,45,22.50
2022,05,17,14,46,25.70
2022,05,17,14,47,24.20
2022,05,17,14,48,16.10
2022,05,17,14,49,17.70
2022,05,17,14,50,14.50
2022,05,17,14,51,20.90
2022,05,17,14,52,19.30
2022,05,17,14,53,19.30
2022,05,17,14,54,11.30
2022,05,17,14,55,22.50
2022,05,17,14,56,20.90
2022,05,17,14,57,17.70
2022,05,17,14,58,16.10
2022,05,17,14,59,11.30
2022,05,17,15,00,17.70
2022,05,17,15,01,20.90
2022,05,17,15,02,19.30
2022,05,17,15,03,20.90
2022,05,17,15,04,19.30
2022,05,17,15,05,24.20
2022,05,17,15,06,24.20
2022,05,17,15,07,24.20
2022,05,17,15,08,22.50
2022,05,17,15,09,9.60
2022,05,17,15,10,20.90
2022,05,17,15,11,16.10
2022,05,17,15,12,16.10
2022,05,17,15,13,17.70
2022,05,17,15,14,20.90
2022,05,17,15,15,22.50
2022,05,17,15,16,20.90
2022,05,17,15,17,19.30
2022,05,17,15,18,20.90
2022,05,17,15,19,19.30
2022,05,17,15,20,22.50
2022,05,17,15,21,12.90
2022,05,17,15,22,20.90
2022,05,17,15,23,19.30
2022,05,17,15,24,20.90
2022,05,17,15,25,19.30
2022,05,17,15,26,19.30
2022,05,17,15,27,19.30
2022,05,17,15,28,17.70
2022,05,17,15,29,19.30
2022,05,17,15,30,17.70
2022,05,17,15,31,20.90
2022,05,17,15,32,25.70
2022,05,17,15,33,17.70
2022,05,17,15,34,17.70
2022,05,17,15,35,14.50
2022,05,17,15,36,19.30
2022,05,17,15,37,9.60
2022,05,17,15,38,22.50
2022,05,17,15,39,17.70
2022,05,17,15,40,11.30
2022,05,17,15,41,22.50
2022,05,17,15,42,19.30
2022,05,17,15,43,12.90
2022,05,17,15,44,14.50
2022,05,17,15,45,20.90
2022,05,17,15,46,17.70
2022,05,17,15,47,20.90
2022,05,17,15,48,17.70
2022,05,17,15,49,14.50
2022,05,17,15,50,14.50
2022,05,17,15,51,17.70
2022,05,17,15,52,16.10
2022,05,17,15,53,16.10
2022,05,17,15,54,16.10
2022,05,17,15,55,16.10
2022,05,17,15,56,20.90
2022,05,17,15,57,9.60
2022,05,17,15,58,12.90
2022,05,17,15,59,11.30
2022,05,17,16,00,16.10
2022,05,17,16,01,16.10
2022,05,17,16,02,11.30
2022,05,17,16,03,17.70
2022,05,17,16,04,11.30
2022,05,17,16,05,16.10
2022,05,17,16,06,25.70
2022,05,17,16,07,17.70
2022,05,17,16,08,17.70
2022,05,17,16,09,17.70
2022,05,17,16,10,19.30
2022,05,17,16,11,11.30
2022,05,17,16,12,11.30
2022,05,17,16,13,16.10
2022,05,17,16,14,17.70
2022,05,17,16,15,16.10
2022,05,17,16,16,16.10
2022,05,17,16,17,17.70
2022,05,17,16,18,20.90
2022,05,17,16,19,20.90
2022,05,17,16,20,11.30
2022,05,17,16,21,19.30
2022,05,17,16,22,16.10
2022,05,17,16,23,20.90
2022,05,17,16,24,17.70
2022,05,17,16,25,9.60
2022,05,17,16,26,9.60
2022,05,17,16,27,8.10
2022,05,17,16,28,12.90
2022,05,17,16,29,19.30
2022,05,17,16,30,17.70
2022,05,17,16,31,19.30
2022,05,17,16,32,20.90
2022,05,17,16,33,12.90
2022,05,17,16,34,14.50
2022,05,17,16,35,16.10
2022,05,17,16,36,16.10
2022,05,17,16,37,19.30
2022,05,17,16,38,17.70
2022,05,17,16,39,17.70
2022,05,17,16,40,16.10
2022,05,17,16,41,17.70
2022,05,17,16,42,19.30
2022,05,17,16,43,14.50
2022,05,17,16,44,17.70
2022,05,17,16,45,16.10
2022,05,17,16,46,16.10
2022,05,17,16,47,11.30
2022,05,17,16,48,8.10
2022,05,17,16,49,14.50
2022,05,17,16,50,11.30
2022,05,17,16,51,16.10
2022,05,17,16,52,14.50
2022,05,17,16,53,11.30
2022,05,17,16,54,9.60
2022,05,17,16,55,4.80
2022,05,17,16,56,14.50
2022,05,17,16,57,16.10
2022,05,17,16,58,17.70
2022,05,17,16,59,12.90
2022,05,17,17,00,11.30
2022,05,17,17,01,6.40
2022,05,17,17,02,17.70
2022,05,17,17,03,14.50
2022,05,17,17,04,11.30
2022,05,17,17,05,8.10
2022,05,17,17,06,9.60
2022,05,17,17,07,16.10
2022,05,17,17,08,16.10
2022,05,17,17,09,16.10
2022,05,17,17,10,12.90
2022,05,17,17,11,9.60
2022,05,17,17,12,12.90
2022,05,17,17,13,8.10
2022,05,17,17,14,4.80
2022,05,17,17,15,8.10
2022,05,17,17,16,9.60
2022,05,17,17,17,8.10
2022,05,17,17,18,9.60
2022,05,17,17,19,11.30
2022,05,17,17,20,14.50
2022,05,17,17,21,9.60
2022,05,17,17,22,11.30
2022,05,17,17,23,9.60
2022,05,17,17,24,6.40
2022,05,17,17,25,8.10
2022,05,17,17,26,8.10
2022,05,17,17,27,8.10
2022,05,17,17,28,8.10
2022,05,17,17,29,8.10
2022,05,17,17,30,8.10
2022,05,17,17,31,9.60
2022,05,17,17,32,14.50
2022,05,17,17,33,14.50
2022,05,17,17,34,11.30
2022,05,17,17,35,17.70
2022,05,17,17,36,8.10
2022,05,17,17,37,6.40
2022,05,17,17,38,9.60
2022,05,17,17,39,16.10
2022,05,17,17,40,17.70
2022,05,17,17,41,14.50
2022,05,17,17,42,8.10
2022,05,17,17,43,6.40
2022,05,17,17,44,8.10
2022,05,17,17,45,6.40
2022,05,17,17,46,8.10
2022,05,17,17,47,6.40
2022,05,17,17,48,9.60
2022,05,17,17,49,11.30
2022,05,17,17,50,11.30
2022,05,17,17,51,16.10
2022,05,17,17,52,17.70
2022,05,17,17,53,11.30
2022,05,17,17,54,16.10
2022,05,17,17,55,11.30
2022,05,17,17,56,16.10
2022,05,17,17,57,14.50
2022,05,17,17,58,12.90
2022,05,17,17,59,9.60
2022,05,17,18,00,9.60
2022,05,17,18,01,9.60
2022,05,17,18,02,11.30
2022,05,17,18,03,11.30
2022,05,17,18,04,11.30
2022,05,17,18,05,14.50
2022,05,17,18,06,16.10
2022,05,17,18,07,8.10
2022,05,17,18,08,11.30
2022,05,17,18,09,14.50
2022,05,17,18,10,9.60
2022,05,17,18,11,9.60
2022,05,17,18,12,11.30
2022,05,17,18,13,8.10
2022,05,17,18,14,14.50
2022,05,17,18,15,16.10
2022,05,17,18,16,9.60
2022,05,17,18,17,11.30
2022,05,17,18,18,6.40
2022,05,17,18,19,6.40
2022,05,17,18,20,8.10
2022,05,17,18,21,9.60
2022,05,17,18,22,11.30
2022,05,17,18,23,6.40
2022,05,17,18,24,8.10
2022,05,17,18,25,8.10
2022,05,17,18,26,8.10
2022,05,17,18,27,9.60
2022,05,17,18,28,9.60
2022,05,17,18,29,11.30
2022,05,17,18,30,8.10
2022,05,17,18,31,8.10
2022,05,17,18,32,11.30
2022,05,17,18,33,11.30
2022,05,17,18,34,9.60
2022,05,17,18,35,11.30
2022,05,17,18,36,11.30
2022,05,17,18,37,11.30
2022,05,17,18,38,14.50
2022,05,17,18,39,9.60
2022,05,17,18,40,6.40
2022,05,17,18,41,8.10
2022,05,17,18,42,8.10
2022,05,17,18,43,6.40
2022,05,17,18,44,9.60
2022,05,17,18,45,6.40
2022,05,17,18,46,1.60
2022,05,17,18,47,8.10
2022,05,17,18,48,8.10
2022,05,17,18,49,6.40
2022,05,17,18,50,8.10
2022,05,17,18,51,6.40
2022,05,17,18,52,6.40
2022,05,17,18,53,9.60
2022,05,17,18,54,9.60
2022,05,17,18,55,11.30
2022,05,17,18,56,8.10
2022,05,17,18,57,9.60
2022,05,17,18,58,8.10
2022,05,17,18,59,8.10
2022,05,17,19,00,8.10
2022,05,17,19,01,8.10
2022,05,17,19,02,4.80
2022,05,17,19,03,6.40
2022,05,17,19,04,4.80
2022,05,17,19,05,4.80
2022,05,17,19,06,4.80
2022,05,17,19,07,4.80
2022,05,17,19,08,4.80
2022,05,17,19,09,4.80
2022,05,17,19,10,8.10
2022,05,17,19,11,6.40
2022,05,17,19,12,3.20
2022,05,17,19,13,3.20
2022,05,17,19,14,4.80
2022,05,17,19,15,3.20
2022,05,17,19,16,6.40
2022,05,17,19,17,6.40
2022,05,17,19,18,6.40
2022,05,17,19,19,4.80
2022,05,17,19,20,3.20
2022,05,17,19,21,4.80
2022,05,17,19,22,6.40
2022,05,17,19,23,4.80
2022,05,17,19,24,6.40
2022,05,17,19,25,1.60
2022,05,17,19,26,4.80
2022,05,17,19,27,3.20
2022,05,17,19,28,1.60
2022,05,17,19,29,3.20
2022,05,17,19,30,4.80
2022,05,17,19,31,6.40
2022,05,17,19,32,6.40
2022,05,17,19,33,3.20
2022,05,17,19,34,3.20
2022,05,17,19,35,4.80
2022,05,17,19,36,3.20
2022,05,17,19,37,3.20
2022,05,17,19,38,3.20
2022,05,17,19,39,3.20
2022,05,17,19,41,3.20
2022,05,17,19,42,1.60
2022,05,17,19,43,4.80
2022,05,17,19,44,3.20
2022,05,17,19,45,3.20
2022,05,17,19,46,3.20
2022,05,17,19,47,6.40
2022,05,17,19,48,6.40
2022,05,17,19,49,6.40
2022,05,17,19,50,3.20
2022,05,17,19,51,4.80
2022,05,17,19,52,6.40
2022,05,17,19,53,4.80
2022,05,17,19,54,3.20
2022,05,17,19,55,4.80
2022,05,17,19,56,4.80
2022,05,17,19,57,3.20
2022,05,17,19,58,4.80
2022,05,17,19,59,6.40
2022,05,17,20,00,6.40
2022,05,17,20,01,1.60
2022,05,17,20,02,4.80
2022,05,17,20,03,6.40
2022,05,17,20,04,4.80
2022,05,17,20,05,4.80
2022,05,17,20,06,3.20
2022,05,17,20,07,4.80
2022,05,17,20,08,4.80
2022,05,17,20,09,4.80
2022,05,17,20,10,4.80
2022,05,17,20,11,1.60
2022,05,17,20,12,3.20
2022,05,17,20,13,1.60
2022,05,17,20,15,1.60
2022,05,17,20,16,1.60
2022,05,17,20,17,1.60
2022,05,17,20,18,3.20
2022,05,17,20,19,3.20
2022,05,17,20,22,3.20
2022,05,17,20,24,1.60
2022,05,17,20,25,1.60
2022,05,17,20,28,3.20
2022,05,17,20,29,4.80
2022,05,17,20,30,4.80
2022,05,17,20,31,3.20
2022,05,17,20,32,3.20
2022,05,17,20,33,3.20
2022,05,17,20,35,3.20
2022,05,17,20,36,4.80
2022,05,17,20,37,4.80
2022,05,17,20,38,3.20
2022,05,17,20,39,4.80
2022,05,17,20,40,3.20
2022,05,17,20,41,3.20
2022,05,17,20,42,3.20
2022,05,17,20,43,3.20
2022,05,17,20,44,3.20
2022,05,17,20,45,1.60
2022,05,17,20,46,1.60
2022,05,17,20,47,1.60
2022,05,17,20,51,1.60
2022,05,17,20,54,1.60
2022,05,17,20,57,1.60
2022,05,17,20,58,1.60
2022,05,17,20,59,3.20
2022,05,17,21,06,1.60
2022,05,17,21,09,1.60
2022,05,17,21,11,1.60
2022,05,17,21,21,1.60
2022,05,17,21,22,1.60
2022,05,17,21,23,1.60
2022,05,17,21,25,1.60
2022,05,17,21,28,1.60
2022,05,17,21,30,1.60
2022,05,17,21,32,1.60
2022,05,17,21,33,1.60
2022,05,17,21,35,1.60
2022,05,17,21,37,1.60
2022,05,17,21,38,1.60
2022,05,17,21,39,1.60
2022,05,17,21,41,1.60
2022,05,17,21,42,1.60
2022,05,17,21,44,1.60
2022,05,17,21,45,1.60
2022,05,17,21,49,4.80
2022,05,17,21,50,4.80
2022,05,17,21,51,4.80
2022,05,17,21,52,3.20
2022,05,17,21,53,3.20
2022,05,17,21,55,1.60
2022,05,17,21,56,4.80
2022,05,17,21,57,4.80
2022,05,17,21,58,3.20
2022,05,17,21,59,1.60
2022,05,17,22,00,3.20
2022,05,17,22,01,3.20
2022,05,17,22,02,4.80
2022,05,17,22,03,1.60
2022,05,17,22,06,1.60
2022,05,17,22,07,1.60
2022,05,17,22,10,1.60
2022,05,17,22,12,1.60
2022,05,17,22,14,1.60
2022,05,17,22,15,1.60
2022,05,17,22,21,1.60
2022,05,17,22,29,1.60
2022,05,17,22,40,1.60
2022,05,17,22,46,1.60
2022,05,17,22,59,1.60
2022,05,17,23,01,3.20
2022,05,17,23,02,1.60
2022,05,17,23,03,1.60
2022,05,17,23,07,3.20
2022,05,17,23,08,1.60
2022,05,17,23,10,1.60
2022,05,17,23,11,1.60
2022,05,17,23,12,1.60
2022,05,17,23,22,1.60
2022,05,17,23,24,1.60
